UAL233 KLAX-KSFO

Flight info

Callsign UAL233
Flight time N/A
Altitude 34000
Route SUMMR2 STOKD SERFR SERFR4
Aircraft B738/M-SDE2E3FGHIRWXY/LB1

Departure

Time 2026-04-22 00:27
Airport Los Angeles International Airport (KLAX)

Arrival

Time N/A
Airport San Francisco International Airport (KSFO)
Time Latitude Longitude Altitude Speed Heading
2026-04-22 00:07 33.94024 -118.39931 93 ft 0 kts 19°
2026-04-22 00:14 33.94013 -118.39936 91 ft 4 kts 19°
2026-04-22 00:15 33.93993 -118.39944 92 ft 4 kts 19°
2026-04-22 00:15 33.93970 -118.39957 91 ft 4 kts 52°
2026-04-22 00:15 33.93964 -118.39981 93 ft 4 kts 83°
2026-04-22 00:15 33.93962 -118.39996 91 ft 1 kts 83°
2026-04-22 00:17 33.93963 -118.39987 92 ft 4 kts 83°
2026-04-22 00:18 33.93970 -118.39913 93 ft 11 kts 83°
2026-04-22 00:18 33.93972 -118.39831 93 ft 8 kts 115°
2026-04-22 00:18 33.93927 -118.39789 94 ft 8 kts 135°
2026-04-22 00:18 33.93907 -118.39719 94 ft 13 kts 85°
2026-04-22 00:19 33.93922 -118.39567 94 ft 22 kts 83°
2026-04-22 00:19 33.93942 -118.39377 96 ft 23 kts 83°
2026-04-22 00:19 33.93961 -118.39191 92 ft 22 kts 83°
2026-04-22 00:19 33.93980 -118.39010 93 ft 21 kts 83°
2026-04-22 00:20 33.93997 -118.38835 93 ft 21 kts 83°
2026-04-22 00:20 33.94015 -118.38664 95 ft 20 kts 82°
2026-04-22 00:20 33.94031 -118.38500 95 ft 20 kts 83°
2026-04-22 00:20 33.94049 -118.38340 95 ft 19 kts 83°
2026-04-22 00:21 33.94065 -118.38185 93 ft 18 kts 83°
2026-04-22 00:21 33.94078 -118.38062 92 ft 11 kts 83°
2026-04-22 00:21 33.94074 -118.38027 92 ft 1 kts 109°
2026-04-22 00:21 33.94053 -118.38005 92 ft 9 kts 155°
2026-04-22 00:22 33.93989 -118.38013 92 ft 7 kts 234°
2026-04-22 00:22 33.93983 -118.38037 92 ft 0 kts 261°
2026-04-22 00:26 33.93979 -118.38074 93 ft 20 kts 262°
2026-04-22 00:26 33.93936 -118.38491 101 ft 80 kts 263°
2026-04-22 00:27 33.93846 -118.39369 95 ft 129 kts 263°
2026-04-22 00:27 33.93704 -118.40572 238 ft 155 kts 262°
2026-04-22 00:27 33.93547 -118.41832 928 ft 149 kts 262°
2026-04-22 00:27 33.93398 -118.43086 1447 ft 157 kts 264°
2026-04-22 00:28 33.93280 -118.44413 1915 ft 167 kts 265°
2026-04-22 00:28 33.93154 -118.45909 2132 ft 189 kts 265°
2026-04-22 00:28 33.93024 -118.47561 2268 ft 207 kts 265°
2026-04-22 00:28 33.92882 -118.49339 2512 ft 219 kts 265°
2026-04-22 00:29 33.92731 -118.51231 2714 ft 237 kts 264°
2026-04-22 00:29 33.92568 -118.53243 3212 ft 242 kts 264°
2026-04-22 00:29 33.92401 -118.55289 3795 ft 250 kts 264°
2026-04-22 00:29 33.92233 -118.57327 4625 ft 245 kts 263°
2026-04-22 00:30 33.92062 -118.59383 5255 ft 250 kts 263°
2026-04-22 00:30 33.91884 -118.61515 5904 ft 254 kts 262°
2026-04-22 00:30 33.91739 -118.63649 6594 ft 257 kts 265°
2026-04-22 00:30 33.91719 -118.65806 7305 ft 258 kts 267°
2026-04-22 00:31 33.91724 -118.67936 8059 ft 258 kts 268°
2026-04-22 00:31 33.91731 -118.70098 8827 ft 258 kts 267°
2026-04-22 00:31 33.91734 -118.72262 9603 ft 259 kts 266°
2026-04-22 00:31 33.91731 -118.74447 10286 ft 264 kts 266°
2026-04-22 00:32 33.91722 -118.76746 10478 ft 286 kts 266°
2026-04-22 00:32 33.91709 -118.79226 10646 ft 307 kts 266°
2026-04-22 00:32 33.91696 -118.81875 10860 ft 324 kts 267°
2026-04-22 00:32 33.91702 -118.84625 11392 ft 331 kts 268°
2026-04-22 00:33 33.91783 -118.87393 12107 ft 332 kts 269°
2026-04-22 00:33 33.91885 -118.90179 12825 ft 333 kts 269°
2026-04-22 00:33 33.91980 -118.92968 13554 ft 334 kts 269°
2026-04-22 00:33 33.92067 -118.95775 14239 ft 336 kts 269°
2026-04-22 00:34 33.92150 -118.98595 14885 ft 338 kts 269°
2026-04-22 00:34 33.92448 -119.01416 15555 ft 345 kts 281°
2026-04-22 00:34 33.93398 -119.04092 16286 ft 353 kts 294°
2026-04-22 00:34 33.94701 -119.06625 16958 ft 357 kts 296°
2026-04-22 00:35 33.96039 -119.09116 17592 ft 360 kts 296°
2026-04-22 00:35 33.97390 -119.11662 18239 ft 362 kts 296°
2026-04-22 00:35 33.98731 -119.14234 18811 ft 364 kts 295°